Terug naar catalogus

SNIPE 2

ActiefWetenschapSSO
NORAD 56745·PAYLOAD·🇰🇷 South Korea
Deze satellietnaam is nog niet bevestigd door officiële bronnen.

Gelanceerd May 25, 2023 vanaf Naro Space Center

Loading…

Volgende Passages (komende 24 uur)

TLE

VersSource: Space-Track

Epoch: Sep 14, 2026, 14:17 UTC

1 56745U 23072C   26257.59567433  .00025529  00000-0  43618-3 0  9993
2 56745  97.5117 110.3548 0005408  50.6584 309.5146 15.51272694184087

Volg SNIPE 2 in realtime met AllMySat

Download on the App Store